sat.trackr.live / text

‹ back to catalog

STSAT-3

NORAD 39422 · 2013-066G

PAYLOAD ACTIVE UNKNOWN

§ Identity

Operator
Country
SKOR
Launch date
2013-11-21
Launch site
DLS
Launch vehicle
Mass (kg)
RCS (m²)
0.46

Purposes: science

External: N2YO · Heavens-Above · Gunter

§ Orbital elements

Epoch: 2026-09-13T04:38:56.054112Z

Period
95.80 min
Inclination
97.6314°
Eccentricity
0.0010804
Mean motion
15.03172279 rev/d
Perigee alt
549.6 km
Apogee alt
564.6 km
Semi-major
6,935.3 km
B*
1.8386e-4
RAAN
224.7193°
Arg perigee
95.3259°
Mean anomaly
264.9200°
Rev number
69,742

§ Raw data

STSAT-31 39422U 13066G   26256.19370433  .00002427  00000+0  18386-3 0  99902 39422  97.6314 224.7193 0010804  95.3259 264.9200 15.03172279697424

JSON: /api/v1/satellites/39422 · /tle

For live sub-satellite position, see the globe view (requires WebGL).

§ Visibility from observer

Set your observer location to see the next 7 days of passes ≥ 10°. The values pass through the URL so the page stays shareable.

No JS? Fill the form by hand. The geolocation button needs JavaScript.